Location: Unspecified
(34.4500°N, 0.0000°E)
Time: 13:40:57
(UTC+00:00)

Hubble Space Telescope - Visible Passes

Search period start: 11 December 2019 00:00
Search period end: 21 December 2019 00:00
Orbit: 536 x 540 km, 28.5° (Epoch: 10 December)

Date Brightness Start Highest point End Pass type
(mag) Time Alt. Az. Time Alt. Az. Time Alt. Az.
12 Dec 3.7 05:36:29 10° S 05:37:55 12° SSE 05:39:22 10° SE visible
13 Dec 3.5 05:24:58 10° SSW 05:27:12 14° SSE 05:29:28 10° SE visible
14 Dec 3.2 05:13:46 10° SSW 05:16:30 17° SSE 05:19:14 10° ESE visible
15 Dec 2.9 05:04:06 16° SSW 05:05:49 20° SSE 05:08:53 10° ESE visible
16 Dec 2.6 04:54:29 22° S 04:55:08 23° SSE 04:58:26 10° ESE visible
16 Dec 2.1 06:32:07 10° WSW 06:35:55 35° S 06:39:43 10° ESE visible
17 Dec 2.5 04:44:46 26° SSE 04:44:46 26° SSE 04:47:57 10° ESE visible
17 Dec 2.1 06:21:28 10° WSW 06:25:16 36° S 06:29:04 10° ESE visible
18 Dec 2.7 04:34:57 25° SE 04:34:57 25° SE 04:37:24 10° ESE visible
18 Dec 2.0 06:10:49 10° WSW 06:14:37 35° S 06:18:24 10° ESE visible
19 Dec 3.1 04:25:04 21° SE 04:25:04 21° SE 04:26:49 10° ESE visible
19 Dec 2.0 06:00:25 11° WSW 06:03:58 34° S 06:07:44 10° ESE visible
20 Dec 3.5 04:15:09 16° ESE 04:15:09 16° ESE 04:16:14 10° ESE visible
20 Dec 2.1 05:50:29 15° WSW 05:53:19 32° S 05:57:00 10° SE visible
